Location: Nelson
(41.2830°S, 173.2830°E)
Time: 10:05:15
(UTC+13:00)

Cosmos 1818 - Pass Details

Date: 24 January 2019
Orbit: 771 x 802 km, 65.0° (Epoch: 16 February)

Event Time Altitude Azimuth Distance (km) Brightness Sun altitude
Exits shadow 23:47:55 23° 314° (NW) 1,609 5.0 -24.3°
Maximum altitude 23:51:16 69° 236° (SW) 843 3.8 -24.6°
Drops below altitude 10° 23:56:39 10° 152° (SSE) 2,350 6.4 -25.0°
Sets 23:59:06 0° 149° (SSE) 3,282 7.2 -25.2°
